FW8963 Weather Reports


Display with metric or nautical units.
time (UTC)temp
F
wind
direction
speed
MPH
gust
MPH
rain 1hr
in
rain 24hr
in
rain mn
in
humidity
%
barometer
mb
20210625032058 83 95 1.0 2.0 0.00 0.00 0.00 79 1016.6
20210625031056 83 110 1.0 2.0 0.00 0.00 0.00 78 1016.3
20210625030054 84 110 2.0 8.0 0.00 0.00 0.00 77 1016.3
20210625025053 84 110 1.0 3.0 0.00 0.00 0.00 77 1016.2
20210625024051 84 92 1.0 3.0 0.00 0.00 0.00 76 1016.1
20210625023049 84 99 1.0 2.0 0.00 0.00 0.00 76 1016.0
20210625022047 85 121 2.0 3.0 0.00 0.00 0.00 76 1015.8
20210625021045 85 129 1.0 4.0 0.00 0.00 0.00 75 1015.7
20210625020042 85 109 2.0 6.0 0.00 0.00 0.00 74 1015.8
20210625015040 86 106 1.0 3.0 0.00 0.00 0.00 72 1015.8
20210625014038 86 111 2.0 7.0 0.00 0.00 0.00 71 1015.8
20210625013036 87 120 1.0 2.0 0.00 0.00 0.00 72 1015.8
20210625012034 87 123 2.0 3.0 0.00 0.00 0.00 71 1015.7
20210625011032 87 135 2.0 4.0 0.00 0.00 0.00 70 1015.7
20210625010030 88 126 2.0 3.0 0.00 0.00 0.00 70 1015.6
20210625005028 89 108 2.0 4.0 0.00 0.00 0.00 68 1015.4
20210625004025 89 134 2.0 4.0 0.00 0.00 0.00 67 1015.5
20210625003023 90 127 2.0 4.0 0.00 0.00 0.00 64 1015.5
20210625002021 91 120 1.0 2.0 0.00 0.00 0.00 63 1015.5
20210625001019 91 102 2.0 4.0 0.00 0.00 0.00 63 1015.6
20210625000017 91 112 2.0 7.0 0.00 0.00 0.00 64 1015.4
20210624235115 92 112 2.0 4.0 0.00 0.00 0.00 64 1015.4
20210624234114 92 108 2.0 6.0 0.00 0.00 0.00 64 1015.3
20210624233111 92 108 2.0 4.0 0.00 0.00 0.00 63 1015.3
20210624232109 92 115 2.0 6.0 0.00 0.00 0.00 63 1015.2
20210624231108 91 123 4.0 8.0 0.00 0.00 0.00 65 1015.1
20210624230106 91 127 3.0 6.0 0.00 0.00 0.00 66 1015.1
20210624225104 91 129 2.0 4.0 0.00 0.00 0.00 65 1015.1
20210624224102 92 105 1.0 2.0 0.00 0.00 0.00 63 1015.1
20210624223100 92 120 3.0 6.0 0.00 0.00 0.00 64 1015.3
20210624222058 94 106 1.0 3.0 0.00 0.00 0.00 60 1015.2
20210624221056 93 109 1.0 3.0 0.00 0.00 0.00 62 1015.4
20210624220054 93 128 2.0 6.0 0.00 0.00 0.00 63 1015.5
20210624215052 93 141 2.0 4.0 0.00 0.00 0.00 63 1015.7
20210624214050 92 87 2.0 4.0 0.00 0.00 0.00 65 1015.8
20210624213048 92 97 1.0 4.0 0.00 0.00 0.00 65 1015.9
20210624212046 92 122 2.0 7.0 0.00 0.00 0.00 66 1016.0
20210624211044 91 131 3.0 6.0 0.00 0.00 0.00 67 1016.2
20210624210042 91 131 2.0 6.0 0.00 0.00 0.00 65 1016.0
20210624205040 90 108 2.0 4.0 0.00 0.00 0.00 66 1016.1
20210624204038 90 162 3.0 7.0 0.00 0.00 0.00 69 1016.2
20210624203037 90 119 2.0 4.0 0.00 0.00 0.00 69 1016.2
20210624202033 90 151 2.0 6.0 0.00 0.00 0.00 69 1016.2
20210624201031 90 107 1.0 3.0 0.00 0.00 0.00 69 1016.3
20210624200029 90 136 2.0 4.0 0.00 0.00 0.00 69 1016.4
20210624195027 90 107 1.0 3.0 0.00 0.00 0.00 69 1016.7
20210624194026 90 133 3.0 6.0 0.00 0.00 0.00 69 1016.6
20210624193023 90 128 3.0 7.0 0.00 0.00 0.00 67 1016.7
20210624192022 90 125 2.0 6.0 0.00 0.00 0.00 70 1016.8
20210624191020 90 135 3.0 8.0 0.00 0.00 0.00 68 1016.9
20210624190018 90 133 2.0 8.0 0.00 0.00 0.00 68 1017.1
20210624185016 90 134 2.0 4.0 0.00 0.00 0.00 69 1017.0
20210624184114 91 84 2.0 4.0 0.00 0.00 0.00 66 1017.1
20210624183113 93 146 4.0 14.0 0.00 0.00 0.00 63 1017.2
20210624182110 93 142 4.0 10.0 0.00 0.00 0.00 61 1017.3
20210624181108 93 122 2.0 6.0 0.00 0.00 0.00 65 1017.6
20210624180106 92 115 3.0 6.0 0.00 0.00 0.00 67 1017.6
20210624175104 93 132 4.0 7.0 0.00 0.00 0.00 65 1017.5
20210624174101 93 158 3.0 7.0 0.00 0.00 0.00 62 1017.7
20210624173059 93 144 3.0 7.0 0.00 0.00 0.00 63 1017.7
20210624172057 92 149 4.0 11.0 0.00 0.00 0.00 65 1017.9
20210624171055 92 157 3.0 7.0 0.00 0.00 0.00 64 1017.9
20210624170054 92 145 3.0 6.0 0.00 0.00 0.00 65 1017.9
20210624165052 91 158 4.0 8.0 0.00 0.00 0.00 67 1017.9
20210624164050 91 134 3.0 6.0 0.00 0.00 0.00 67 1018.0
20210624163048 90 157 3.0 6.0 0.00 0.00 0.00 69 1018.0
20210624162045 89 170 3.0 6.0 0.00 0.00 0.00 71 1018.1
20210624161043 89 175 3.0 4.0 0.00 0.00 0.00 73 1018.2
20210624160042 88 161 2.0 4.0 0.00 0.00 0.00 76 1018.4
20210624155040 89 154 3.0 7.0 0.00 0.00 0.00 73 1018.3
20210624154038 90 145 3.0 6.0 0.00 0.00 0.00 73 1018.4
20210624153036 89 152 2.0 4.0 0.00 0.00 0.00 75 1018.3
20210624152034 88 123 2.0 4.0 0.00 0.00 0.00 77 1018.4
20210624151032 88 147 3.0 6.0 0.00 0.00 0.00 77 1018.6
20210624150030 88 90 1.0 2.0 0.00 0.00 0.00 79 1018.6
20210624145028 87 152 3.0 8.0 0.00 0.00 0.00 79 1018.5
20210624144024 86 159 2.0 3.0 0.00 0.00 0.00 83 1018.6
20210624143022 85 126 2.0 4.0 0.00 0.00 0.00 85 1018.5
20210624142020 85 97 1.0 3.0 0.00 0.00 0.00 85 1018.5
20210624141018 84 90 1.0 2.0 0.00 0.00 0.00 87 1018.3
20210624140016 84 139 2.0 3.0 0.00 0.00 0.00 87 1018.3
20210624135115 84 123 0.0 2.0 0.00 0.00 0.00 88 1018.3
20210624134112 84 127 1.0 3.0 0.00 0.00 0.00 89 1018.4
20210624133110 83 129 1.0 2.0 0.00 0.00 0.00 90 1018.4
20210624132108 83 0.0 0.0 0.00 0.00 0.00 91 1018.3
20210624131106 82 116 1.0 2.0 0.00 0.00 0.00 92 1018.3
20210624130104 81 0.0 0.0 0.00 0.00 0.00 93 1018.2
20210624125102 81 0.0 0.0 0.00 0.00 0.00 95 1018.1
20210624124100 80 0.0 0.0 0.00 0.00 0.00 96 1018.2
20210624123058 80 0.0 0.0 0.00 0.00 0.00 97 1018.0
20210624122056 79 0.0 0.0 0.00 0.00 0.00 97 1018.1
20210624121054 79 0.0 0.0 0.00 0.00 0.00 98 1018.0
20210624120053 79 0.0 0.0 0.00 0.00 0.00 98 1018.0
20210624115051 79 0.0 0.0 0.00 0.00 0.00 98 1017.8
20210624114048 78 0.0 0.0 0.00 0.00 0.00 98 1017.9
20210624113047 78 0.0 0.0 0.00 0.00 0.00 97 1017.8
20210624112045 79 0.0 0.0 0.00 0.00 0.00 97 1018.0
20210624111043 79 0.0 0.0 0.00 0.00 0.00 96 1018.0
20210624110041 79 0.0 0.0 0.00 0.00 0.00 96 1017.9
20210624105040 79 0.0 0.0 0.00 0.00 0.00 96 1017.9
20210624104037 79 0.0 0.0 0.00 0.00 0.00 95 1017.8
20210624103035 79 0.0 0.0 0.00 0.00 0.00 95 1017.8
20210624102033 79 0.0 0.0 0.00 0.00 0.00 95 1017.7
20210624101032 80 0.0 0.0 0.00 0.00 0.00 95 1017.6
20210624100029 80 0.0 0.0 0.00 0.00 0.00 94 1017.6
20210624095027 80 0.0 0.0 0.00 0.00 0.00 94 1017.7
20210624094025 80 102 0.0 1.0 0.00 0.00 0.00 94 1017.7
20210624093022 80 0.0 0.0 0.00 0.00 0.00 94 1017.6
20210624092021 80 102 0.0 2.0 0.00 0.00 0.00 93 1017.6
20210624091018 80 101 1.0 1.0 0.00 0.00 0.00 93 1017.5
20210624090016 80 100 0.0 2.0 0.00 0.00 0.00 93 1017.4
20210624085113 80 97 0.0 2.0 0.00 0.00 0.00 93 1017.4
20210624084111 80 105 0.0 1.0 0.00 0.00 0.00 93 1017.6
20210624083109 80 105 0.0 1.0 0.00 0.00 0.00 93 1017.6
20210624082107 80 0.0 0.0 0.00 0.00 0.00 93 1017.5
20210624081105 80 119 0.0 1.0 0.00 0.00 0.00 92 1017.6
20210624080103 80 104 0.0 2.0 0.00 0.00 0.00 92 1017.7
20210624075101 81 124 0.0 1.0 0.00 0.00 0.00 92 1017.8
20210624074058 81 120 0.0 1.0 0.00 0.00 0.00 92 1017.8
20210624073056 81 98 0.0 1.0 0.00 0.00 0.00 92 1017.8
20210624072054 81 98 0.0 1.0 0.00 0.00 0.00 91 1017.9
20210624071052 81 98 0.0 1.0 0.00 0.00 0.00 91 1018.0
20210624070050 81 98 0.0 1.0 0.00 0.00 0.00 91 1018.0
20210624065048 81 94 0.0 1.0 0.00 0.00 0.00 90 1017.9
20210624064045 81 0.0 0.0 0.00 0.00 0.00 90 1018.0
20210624063043 81 96 0.0 1.0 0.00 0.00 0.00 90 1018.0
20210624062041 81 97 0.0 1.0 0.00 0.00 0.00 89 1017.9
20210624061040 81 97 0.0 1.0 0.00 0.00 0.00 89 1017.9
20210624060038 81 0.0 0.0 0.00 0.00 0.00 89 1017.7
20210624055035 82 0.0 0.0 0.00 0.00 0.00 88 1017.7
20210624054033 82 95 1.0 3.0 0.00 0.00 0.00 88 1017.8
20210624053031 82 104 0.0 1.0 0.00 0.00 0.00 87 1017.7
20210624052028 82 97 0.0 3.0 0.00 0.00 0.00 87 1017.7
20210624051027 82 98 1.0 2.0 0.00 0.00 0.00 87 1017.8
20210624050025 82 122 0.0 1.0 0.00 0.00 0.00 86 1017.8
20210624045024 82 101 1.0 2.0 0.00 0.00 0.00 86 1017.7
20210624044021 83 97 0.0 2.0 0.00 0.00 0.00 85 1017.7
20210624043019 83 96 1.0 3.0 0.00 0.00 0.00 84 1017.7
20210624042018 83 107 1.0 3.0 0.00 0.00 0.00 84 1017.5
20210624041016 83 141 2.0 6.0 0.00 0.00 0.00 84 1017.4
20210624040114 83 151 2.0 6.0 0.00 0.00 0.00 82 1017.4
20210624035112 83 135 1.0 2.0 0.00 0.00 0.00 81 1017.4
20210624034111 84 136 2.0 3.0 0.00 0.00 0.00 80 1017.4
20210624033109 84 166 2.0 6.0 0.00 0.00 0.00 79 1017.3